Simultaneous Nadir Overpasses (SNOs) Predictions

Prediction of SNOs between LANDSAT-8 and METOP-A Satellite Orbit:

Table of predicted SNOs for the next 14.0 days since TLE Epoch: 9/30/2017
Index Date (LANDSAT-8) Time (LANDSAT-8) Lat,Lon (LANDSAT-8) SZA (LANDSAT-8 ) Date (METOP-A) Time (METOP-A) Lat,Lon (METOP-A) SZA (METOP-A ) Distance(km) Time Diff (sec)
1 10/02/2017 18:45:12 81.26, -59.12 87.63 10/02/2017 18:44:46 81.26, -58.99 87.63 2.25 26
2 10/02/2017 19:34:39 -81.25, 108.45 92.37 10/02/2017 19:35:26 -81.26, 108.58 92.33 2.36 47
3 10/05/2017 14:19:29 81.24, 6.97 88.68 10/05/2017 14:19:07 81.24, 6.85 88.66 1.98 22
4 10/05/2017 15:08:55 -81.26, 174.94 91.26 10/05/2017 15:09:46 -81.26, 174.82 91.25 2.05 51
5 10/08/2017 09:53:43 81.26, 73.76 89.83 10/08/2017 09:53:24 81.26, 73.84 89.82 1.27 19
6 10/08/2017 10:43:10 -81.26,-118.62 90.17 10/08/2017 10:44:04 -81.26,-118.58 90.14 0.82 54
7 10/11/2017 05:27:59 81.26, 140.14 90.90 10/11/2017 05:27:44 81.25, 140.03 90.88 1.99 15
8 10/11/2017 06:17:26 -81.26, -52.22 89.09 10/11/2017 06:18:24 -81.26, -52.37 89.08 2.58 58
9 10/14/2017 01:02:15 81.25,-153.53 91.95 10/14/2017 01:02:03 81.25,-153.42 91.96 2.06 12




NCC Satellite Simultaneous Nadir Overpasses (SNOs) Prediction Service
